SCP
-0 0 0 0 0 0 0 0 0 0 0 0 0 0 0 0 0 0 0 0 0 0 0 0 0 0 0 0 0 0 0 0 0 0 0 0 0 0 0 0 0 0 0
-0 0 0 0 0 0 0 0 0 0 0 0 0 0 0 0 0 0 0 0 0 0 0 0 0 0 0 0 0 0 0 0 0 0 0 0 0 0 0 0 0 0 0
0 0 0 0 0 0 0 0 0 0 0 0 0 0 0 0 0 0 0 0 0 0 0 0 0 0 0 0 0 0 0 0 0 0 0 0 0 0 0 0 0 0 0
0 0 0 0 0 0 0 0 0 0 0 0 0 0 0 0 0 0 0 0 0 0 0 0 0 0 0 0 0 0 0 0 0 0 0 0 0 0 0 0 0 0 0
0 0 0 0 0 0 0 0 0 0 0 0 0 0 0 0 0 0 0 0 0 0 0 0 0 0 0 0 0 0 0 0 0 0 0 0 0 0 0 0 0 0 0
0 0 0 0 0 0 0 0 0 0 0 0 0 0 0 0 0 0 0 0 0 0 0 0 0 0 0 0 0 0 0 0 0 0 0 0 0 0 0 0 0 0 0
0 0 0 0 0 0 0 0 0 0 0 0 0 0 0 0 0 0 0 0 1 1 1 0 0 0 0 0 0 0 0 0 0 0 0 0 0 0 0 0 0 0 0
0 1 1 1 1 1 1 0 0 0 0 0 0 0 0 0 0 0 0 0 0 1 1 1 0 0 0 0 0 0 0 0 0 0 0 0 0 0 0 0 0 0 0
0 0 0 0 1 1 1 0 0 0 0 0 0 0 0 0 1 0 0 0 0 0 1 1 0 0 0 0 0 0 0 0 0 0 0 0 0 0 1 0 0 0 0
0 0 0 0 0 0 0 0 0 0 0 0 0 0 0 0 0 0 0 0 0 0 0 0 0 0 0 0 0 0 0 0 0 0 0 0 0 0 1 1 0 0 0
0 0 0 0 0 0 0 0 0 0 0 0 0 0 0 0 0 0 0 0 0 1 0 0 0 0 0 0 0 0 0 0 0 0 0 0 0 1 1 1 1 0 0
0 0 0 0 0 0 0 0 0 0 0 0 0 0 0 0 0 0 0 0 0 0 1 0 0 0 0 0 0 0 0 0 0 0 0 0 0 1 1 1 1 1 1
0 0 0 0 0 0 0 0 0 0 0 0 0 0 0 0 0 0 0 0 0 0 0 0 0 0 0 0 0 0 0 0 0 0 0 0 0 1 1 1 1 1 1
0 0 0 0 0 0 0 0 0 0 0 0 0 0 0 0 0 0 0 0 0 0 0 0 0 0 0 0 0 0 0 0 0 0 0 0 1 1 1 1 1 1 1
0 0 0 0 0 0 0 0 0 0 0 0 0 0 0 0 0 0 0 0 0 0 0 0 0 0 0 0 0 0 0 0 0 0 0 0 1 1 1 1 1 1 1
0 0 0 0 0 0 0 0 0 0 0 0 0 0 0 0 0 0 0 0 0 0 0 0 0 0 0 0 0 0 0 0 0 0 0 0 1 1 1 1 1 1 1
0 0 0 0 0 0 0 0 0 0 0 0 0 0 0 0 0 0 0 0 0 0 0 0 0 0 0 0 0 0 0 0 0 1 1 0 1 1 1 1 1 1 1
0 0 0 0 0 0 0 0 0 0 0 0 0 0 0 0 0 0 0 0 0 0 0 0 0 0 0 0 0 0 0 0 0 0 0 0 0 0 1 1 1 1 1
0 0 0 0 0 0 0 0 0 0 0 0 0 0 0 0 0 0 0 0 0 0 0 0 0 0 0 0 0 0 0 0 0 0 0 0 0 0 0 1 1 1 1
0 0 0 0 0 0 0 0 0 0 0 0 0 0 0 0 0 0 0 0 0 0 0 0 0 0 0 0 0 0 0 0 0 0 0 0 0 0 0 0 0 1 1
0 0 0 0 0 0 0 0 0 0 0 0 0 0 0 0 0 0 0 0 0 0 0 0 0 0 0 0 0 0 0 0 0 0 0 0 0 0 0 0 0 0 0
0 0 0 0 0 0 0 0 0 0 0 0 0 0 0 0 0 0 0 0 0 0 0 0 0 0 0 0 0 0 0 0 0 0 0 0 0 0 0 0 0 0 0
0 0 0 0 0 0 0 0 0 0 0 0 0 0 0 0 0 0 0 0 0 0 0 0 0 0 0 0 0 0 0 0 0 0 0 0 0 0 0 0 0 0 0
0 0 0 0 0 0 0 0 0 0 0 0 0 0 0 0 0 0 0 0 0 0 0 0 0 0 0 0 0 0 0 0 0 0 0 0 0 0 0 0 0 0 0
0 0 0 0 0 0 0 0 0 0 0 0 0 0 0 0 0 0 0 0 0 0 0 0 0 0 0 0 0 0 0 0 0 0 0 0 0 0 0 0 0 0 0
0 0 0 0 0 0 0 0 0 0 0 0 0 0 0 0 0 0 0 0 0 0 0 0 0 0 0 0 0 0 0 0 0 0 0 0 0 0 0 0 0 0 0
Wind_Speed
3 6 13 14 13 12 11 9 8 8 7 6 6 6 5 5 5 5 5 4 4 3 2 3 3 3 4 4 5 6 6 6 6 6 6 7 8 8 8 6 5 5 7
7 7 13 14 13 12 11 10 8 7 7 6 5 5 5 5 5 5 5 5 5 5 4 4 3 3 3 4 5 6 6 6 5 5 5 5 6 8 8 7 6 4 6
8 9 11 15 14 12 11 10 9 8 7 6 5 4 4 4 4 4 5 7 7 7 6 5 4 3 3 4 5 6 6 6 5 4 3 2 2 7 8 7 7 7 6
10 9 10 15 14 13 11 10 9 8 7 6 5 5 4 4 3 3 3 5 7 7 7 5 4 4 3 4 5 6 6 6 5 4 2 2 2 6 8 8 8 7 7
8 8 10 16 14 13 11 10 9 8 8 7 6 5 5 4 3 2 2 2 4 6 6 4 4 5 5 5 6 6 7 7 6 4 2 3 4 7 9 8 8 8 8
7 6 8 14 13 11 10 9 8 8 8 7 6 5 5 5 4 2 0 1 1 4 5 5 5 5 5 5 6 7 8 7 5 3 2 3 4 10 10 9 9 8 8
6 5 6 11 11 11 10 9 9 8 7 7 6 6 6 6 6 4 2 2 2 4 5 5 5 6 6 6 7 8 8 7 5 3 3 3 6 12 12 11 10 8 8
6 4 4 8 9 10 10 10 9 8 8 8 8 7 7 6 5 6 5 4 4 4 4 5 5 6 6 7 8 8 8 7 5 4 3 4 9 14 14 13 11 9 8
5 4 1 1 2 5 7 7 8 8 8 8 8 8 6 5 4 5 6 6 7 6 6 5 4 5 6 7 8 8 8 9 5 3 3 3 10 14 15 14 12 10 9
6 4 2 1 1 1 3 5 7 8 8 8 8 7 6 6 6 6 5 7 8 8 8 7 7 6 6 6 7 8 9 7 5 4 2 4 11 15 15 14 13 11 10
7 5 4 4 2 1 3 5 6 7 8 8 7 8 7 4 5 5 7 9 11 11 11 10 10 9 8 7 7 8 7 3 4 3 3 6 13 16 15 15 13 12 12
7 7 5 5 5 4 3 1 2 3 4 5 4 5 4 4 4 6 8 11 13 13 13 13 13 10 8 4 5 7 3 5 4 4 4 9 14 17 16 16 15 14 13
9 10 10 8 7 6 4 3 2 2 3 4 5 6 4 4 3 4 3 4 6 8 6 6 6 4 4 4 4 4 5 5 4 4 5 10 15 18 18 17 16 15 15
15 15 13 12 11 9 7 4 3 3 3 3 4 4 3 2 3 3 3 3 3 3 4 4 3 5 6 6 6 6 6 5 4 4 6 12 15 19 19 18 18 17 16
18 17 14 15 16 13 10 8 6 5 4 4 4 4 2 1 3 3 3 3 3 3 3 4 4 5 5 6 6 7 7 8 8 7 5 12 16 17 20 19 19 18 17
15 16 15 16 16 14 12 11 8 7 6 5 5 6 5 2 2 2 3 3 4 4 4 4 5 5 4 4 5 6 7 8 9 9 7 9 16 17 19 20 20 20 19
11 13 15 14 16 15 14 13 10 9 9 8 7 7 6 4 3 3 3 4 4 4 4 3 4 3 3 3 4 5 5 7 8 9 9 6 8 15 17 19 20 21 20
11 12 13 14 15 15 13 11 10 10 10 9 9 8 9 7 5 3 3 4 4 4 3 3 3 3 3 3 4 4 4 4 7 8 7 7 6 6 11 15 17 20 21
9 9 11 12 12 12 11 10 10 10 10 10 10 10 11 11 8 5 4 4 4 3 3 3 3 3 3 4 4 4 4 4 5 5 6 8 7 7 6 10 14 16 18
8 8 8 9 9 8 7 7 8 10 10 10 10 11 14 12 11 7 5 6 4 3 3 3 4 3 3 3 3 3 4 4 4 4 6 6 7 8 7 7 7 9 14
9 9 9 9 9 8 6 7 7 8 9 10 10 13 15 14 14 10 7 6 5 4 5 5 3 3 3 2 1 2 3 3 4 4 4 4 6 7 7 8 6 5 5
12 12 12 12 11 9 6 5 4 5 5 7 8 11 13 15 15 12 10 8 6 5 5 5 4 3 2 2 3 1 3 3 2 2 2 4 5 4 6 8 7 6 4
12 13 13 13 13 11 9 5 5 4 5 7 10 11 14 17 16 14 13 9 7 6 5 6 5 6 4 2 3 4 3 4 2 2 1 1 3 3 4 5 7 7 6
11 11 11 12 12 10 8 6 7 7 6 6 8 9 14 16 17 16 14 11 8 5 5 5 5 4 5 3 2 2 2 3 2 1 2 2 1 2 3 4 5 5 5
10 10 10 11 10 10 8 7 7 6 6 6 8 11 12 13 15 16 14 10 7 5 5 5 5 5 4 5 4 3 2 1 1 2 1 1 2 1 1 3 4 4 5
10 10 11 11 10 9 8 8 7 8 9 11 12 12 12 11 12 15 15 10 6 4 4 4 5 6 4 4 4 4 4 3 2 2 2 1 1 1 2 1 3 4 4
Wind_Direction
172 180 170 165 164 162 162 161 158 155 155 155 160 162 163 158 149 150 154 156 156 161 172 166 149 136 127 126 126 125 120 113 105 100 104 114 115 111 100 88 105 107 104
163 175 172 169 170 171 171 168 164 162 163 166 167 170 176 180 181 187 193 196 195 195 201 208 199 176 158 149 143 141 139 134 125 102 87 96 113 115 106 94 100 116 114
151 171 172 172 173 175 176 174 171 172 174 177 182 187 191 197 206 215 219 218 214 210 211 218 220 209 191 174 163 162 162 157 147 130 102 82 123 125 117 109 105 110 115
157 170 172 175 175 177 178 180 181 183 185 189 196 205 215 222 225 220 239 231 224 217 215 222 227 225 210 191 181 182 182 180 168 157 149 187 197 146 131 122 115 111 112
158 171 177 175 175 177 180 185 189 193 196 201 208 220 228 230 235 239 259 265 228 212 208 209 214 219 214 201 194 195 196 197 194 177 169 210 205 169 145 132 125 119 115
165 173 176 175 175 177 182 190 196 202 208 212 219 235 242 239 229 215 274 297 224 204 199 201 212 219 220 214 208 207 206 207 212 185 180 205 183 173 152 142 136 132 124
151 162 172 177 178 180 186 194 200 206 216 223 230 244 252 256 234 207 201 218 215 209 203 206 218 223 226 225 222 220 218 213 213 205 192 201 192 176 160 155 152 149 142
135 145 165 187 187 188 193 199 204 210 218 226 234 241 250 265 242 214 210 218 217 216 211 211 218 226 227 227 228 228 226 218 225 225 207 199 197 182 168 164 163 164 161
106 111 120 212 212 210 211 211 213 218 225 232 239 241 241 250 259 242 220 218 217 216 214 214 225 237 241 237 233 230 227 223 225 224 224 199 206 190 174 169 169 173 173
70 72 53 352 248 254 246 232 224 224 229 235 241 244 240 236 240 241 232 225 220 216 211 214 225 234 244 248 246 238 230 225 225 225 220 216 214 200 181 174 174 175 176
59 55 55 56 46 279 239 230 233 235 238 241 243 241 237 237 241 246 245 240 232 222 216 219 227 235 238 243 246 244 237 221 222 227 215 226 217 207 190 180 177 178 179
37 31 34 46 41 32 27 37 270 267 264 254 247 244 237 229 231 241 251 246 236 226 221 226 233 240 242 243 249 247 228 219 217 228 224 231 224 212 198 185 182 182 184
17 17 12 17 22 27 27 22 345 310 293 276 260 247 244 242 240 241 249 260 238 228 226 243 251 242 236 233 240 240 230 222 217 224 225 231 226 216 206 193 187 187 188
23 16 12 13 13 13 15 9 5 352 331 319 298 271 243 237 240 234 222 229 225 221 226 237 241 243 240 237 236 239 237 231 225 223 225 226 222 216 210 201 193 192 193
23 14 11 18 14 9 11 3 4 356 350 340 336 334 317 245 247 242 229 222 223 222 224 231 234 239 241 242 239 237 234 230 230 226 225 220 217 214 211 208 201 197 197
20 15 11 20 14 12 12 4 357 351 346 346 343 333 331 306 266 260 253 235 227 222 225 228 231 231 235 235 243 242 239 232 229 227 220 216 215 213 213 211 207 203 202
17 15 14 17 14 14 10 4 358 352 349 346 337 328 324 315 290 260 249 249 245 238 237 242 251 243 244 242 251 257 250 238 230 223 216 208 210 214 214 213 209 207 207
22 17 15 15 13 12 9 2 358 352 350 346 338 330 323 316 301 277 253 249 249 247 239 237 241 249 254 257 263 268 262 246 230 217 206 198 199 207 217 219 212 209 211
16 13 11 9 10 7 3 360 355 353 351 344 338 333 327 318 306 284 260 253 251 244 240 238 226 217 238 252 257 259 260 253 236 217 202 197 196 200 205 223 222 214 212
2 2 2 360 359 357 358 357 356 354 351 344 338 334 331 323 312 298 273 260 249 238 239 229 224 214 216 229 252 265 260 255 246 226 212 202 199 202 201 210 220 223 217
357 355 352 353 349 351 353 356 355 352 345 340 336 333 329 324 317 305 288 267 245 228 226 219 205 203 210 191 209 293 290 262 246 237 220 204 203 202 195 200 203 207 217
354 352 351 349 343 342 339 334 331 328 325 326 324 326 326 324 317 308 293 272 247 228 221 211 197 182 200 183 171 209 297 314 301 270 229 209 206 198 200 198 193 193 195
355 352 348 341 337 334 331 328 328 328 328 340 338 333 329 324 315 305 294 277 250 221 212 208 194 178 187 206 181 173 195 234 288 324 323 215 195 187 184 175 179 180 181
354 348 343 337 334 333 332 336 342 349 338 327 325 320 322 322 318 312 300 283 253 225 209 208 198 184 166 184 194 190 196 185 188 254 346 360 33 164 165 161 155 152 155
350 346 340 336 335 335 337 338 342 342 330 324 328 324 324 322 322 320 311 296 269 241 219 205 194 188 173 168 172 169 170 159 150 157 183 336 19 28 124 142 134 132 138
346 343 340 339 336 338 340 339 342 342 337 337 338 333 330 325 325 328 326 315 300 280 249 222 200 187 181 166 162 161 164 165 180 157 162 184 174 350 15 85 131 134 137